User: anonymous   Login
Location: Unspecified
(0.0000°N, 0.0000°E)
Time: 03:33:57
(UTC+00:00)
Language:

ITUPSAT 1 - Orbit

View from above orbital plane
View from above orbital plane
View from above satellite
View from above satellite

Ground track
Ground track

The orbit data is extracted from the following two-line orbital elements,

1 35935U 09051E   17173.81691368 +.00000089 +00000-0 +31669-4 0  9997
2 35935 098.5113 313.9900 0007162 235.1663 124.8860 14.55330222411058
Epoch (UTC): 22 June 2017 19:36:21
Eccentricity: 0.0007162
inclination: 98.5113°
perigee height: 703 km
apogee height: 713 km
right ascension of ascending node: 313.9900°
argument of perigee: 235.1663°
revolutions per day: 14.55330222
mean anomaly at epoch: 124.8860°
orbit number at epoch: 41105

The dashed part of the orbit path shows where the satellite is in the earth's shadow,  

DLR